Torna al catalogo

CZ-2C DEB

AttivoSSO
NORAD 67586·DEBRIS·🇨🇳 China

Lanciato Jan 15, 2026 da Jiuquan Satellite Launch Center

Loading…

Prossimi Passaggi (prossime 24 ore)

TLE

AggiornatoSource: Space-Track

Epoca: Sep 14, 2026, 14:27 UTC

1 67586U 26009C   26257.60265113  .00092352  00000-0  22753-2 0  9997
2 67586  97.1984 322.9319 0060995  89.3484 271.4750 15.38291701 36895

Traccia CZ-2C DEB in tempo reale con AllMySat

Download on the App Store